sat.trackr.live / text

‹ back to catalog

STARLINK-34994

NORAD 65924 · 2025-225Q

PAYLOAD ACTIVE UNKNOWN

§ Identity

Operator
Country
US
Launch date
2025-10-08
Launch site
AFWTR
Launch vehicle
Mass (kg)
RCS (m²)

Purposes: comms

External: N2YO · Heavens-Above · Gunter

§ Orbital elements

Epoch: 2026-05-25T01:23:43.639872Z

Period
94.10 min
Inclination
53.1588°
Eccentricity
0.0001311
Mean motion
15.30206110 rev/d
Perigee alt
474.3 km
Apogee alt
476.1 km
Semi-major
6,853.3 km
B*
3.7892e-4
RAAN
170.7271°
Arg perigee
70.9603°
Mean anomaly
289.1540°
Rev number
3,610

§ Raw data

STARLINK-349941 65924U 25225Q   26145.05814398  .00010882  00000+0  37892-3 0  99982 65924  53.1588 170.7271 0001311  70.9603 289.1540 15.30206110 36102

JSON: /api/v1/satellites/65924 · /tle

For live sub-satellite position, see the globe view (requires WebGL).

§ Visibility from observer

Set your observer location to see the next 7 days of passes ≥ 10°. The values pass through the URL so the page stays shareable.

No JS? Fill the form by hand. The geolocation button needs JavaScript.